Flight Track Log - Related Links

Times and Time Zones

All times are in EST time to prevent confusion due to time zone crossing. See the TCF3461 flight status page for this flight to view local times or setup timezone preferences in your user account.

Time Position Orientation Groundspeed Altitude Reporting Facility
EST Latitude Longitude Course Direction KTS MPH feet Rate Location/Type
06:09PM 40.7731 -111.9736 246° West 167 192 4,900  Level Salt Lake Center
06:11PM 40.7492 -112.0456 246° West 205 236 7,000 2,066 Climbing Salt Lake Center
06:11PM 40.7808 -112.1014 307° West 265 305 9,100 2,710 Climbing Salt Lake Center
06:12PM 40.7950 -112.1164 321° Northwest 257 296 9,800 2,961 Climbing Salt Lake Center
06:13PM 40.8494 -112.1817 318° Northwest 263 303 12,900 2,488 Climbing Salt Lake Center
06:14PM 40.9067 -112.1172 40° Northeast 305 351 14,900 1,645 Climbing Salt Lake Center
06:15PM 40.9342 -112.0008 73° East 339 390 16,300 1,694 Climbing Salt Lake Center
06:16PM 40.9644 -111.8747 72° East 367 422 18,400 2,098 Climbing Salt Lake Center
06:17PM 41.0006 -111.7189 73° East 389 448 20,600 1,951 Climbing Salt Lake Center
06:18PM 41.0328 -111.5797 73° East 401 461 22,400 1,742 Climbing Salt Lake Center
06:19PM 41.0658 -111.4358 73° East 408 470 24,200 1,645 Climbing Salt Lake Center
06:20PM 41.0994 -111.2889 73° East 418 481 25,800 1,610 Climbing Salt Lake Center
06:21PM 41.1328 -111.1394 73° East 423 487 27,500 1,463 Climbing Salt Lake Center
06:22PM 41.1744 -110.9547 73° East 435 501 28,800 1,065 Climbing Salt Lake Center
06:23PM 41.2092 -110.7975 74° East 444 511 29,700 919 Climbing Salt Lake Center
06:24PM 41.2439 -110.6417 73° East 457 526 30,700 976 Climbing Salt Lake Center
06:25PM 41.2833 -110.4586 74° East 462 532 31,700 927 Climbing Salt Lake Center
06:26PM 41.3186 -110.3003 73° East 466 536 32,600 1,016 Climbing Salt Lake Center
06:27PM 41.3594 -110.1136 74° East 469 540 33,800 976 Climbing Salt Lake Center
06:28PM 41.3925 -109.9572 74° East 462 532 34,600 585 Climbing Salt Lake Center
06:29PM 41.4261 -109.7986 74° East 464 534 35,000 194 Climbing Salt Lake Center
06:30PM 41.4672 -109.6081 74° East 477 549 35,000  Level Salt Lake Center
06:31PM 41.5025 -109.4411 74° East 485 558 35,000  Level Salt Lake Center
06:32PM 41.5419 -109.2500 75° East 475 547 35,000  Level Salt Lake Center
06:33PM 41.5758 -109.0847 75° East 471 542 35,000  Level Salt Lake Center
06:34PM 41.5981 -108.9161 80° East 475 547 35,000  Level Salt Lake Center
06:35PM 41.6139 -108.7172 84° East 478 550 35,000  Level Salt Lake Center
06:36PM 41.6267 -108.5475 84° East 480 552 35,000  Level Salt Lake Center
06:37PM 41.6383 -108.3747 85° East 486 559 35,000  Level Salt Lake Center
06:38PM 41.6531 -108.1736 84° East 488 562 35,000  Level Salt Lake Center
06:39PM 41.6658 -108.0053 84° East 479 551 35,000  Level Salt Lake Center
06:40PM 41.6778 -107.8358 85° East 480 552 35,000  Level Denver Center
06:41PM 41.6889 -107.6675 85° East 479 551 35,000  Level Denver Center
06:42PM 41.7017 -107.4694 85° East 478 550 35,000  Level Denver Center
06:43PM 41.7128 -107.2997 85° East 478 550 35,000  Level Denver Center
06:45PM 41.7250 -107.1011 85° East 478 550 35,000  Level Denver Center
06:46PM 41.7361 -106.9342 85° East 477 549 35,000  Level Denver Center
06:47PM 41.7453 -106.7642 86° East 476 548 35,000  Level Denver Center
06:48PM 41.7578 -106.5672 85° East 476 548 35,000  Level Denver Center
06:49PM 41.7675 -106.3750 86° East 476 548 35,000  Level Denver Center
06:50PM 41.7786 -106.2050 85° East 477 549 35,000  Level Denver Center
06:51PM 41.7892 -106.0081 86° East 478 550 35,000  Level Denver Center
06:52PM 41.7975 -105.8392 86° East 477 549 35,000  Level Denver Center
06:53PM 41.8047 -105.6744 87° East 469 540 35,000  Level Denver Center
06:54PM 41.8164 -105.4808 85° East 467 537 35,000  Level Denver Center
06:55PM 41.8231 -105.3142 87° East 468 539 35,000  Level Denver Center
06:56PM 41.8322 -105.0903 87° East 470 541 35,000  Level Denver Center
06:57PM 41.8414 -104.8983 86° East 469 540 35,000  Level Denver Center
06:58PM 41.8506 -104.7317 86° East 469 540 35,000  Level Denver Center
06:59PM 41.8731 -104.5431 81° East 464 534 35,000  Level Denver Center
07:00PM 41.8919 -104.3808 81° East 464 534 35,000  Level Denver Center
07:01PM 41.9139 -104.1889 81° East 464 534 35,000  Level Denver Center
07:02PM 41.9317 -104.0281 81° East 463 533 35,000  Level Denver Center
07:03PM 41.9533 -103.8372 81° East 463 533 35,000  Level Denver Center
07:04PM 41.9714 -103.6750 81° East 463 533 35,000  Level Denver Center
07:05PM 41.9883 -103.5117 82° East 463 533 35,000  Level Denver Center
07:06PM 42.0100 -103.3192 81° East 465 535 35,000  Level Denver Center
07:07PM 42.0264 -103.1547 82° East 465 535 35,000  Level Denver Center
07:08PM 42.0475 -102.9644 81° East 464 534 35,000  Level Denver Center
07:09PM 42.0644 -102.7975 82° East 466 536 35,000  Level Denver Center
07:11PM 42.0842 -102.6036 82° East 467 537 35,000  Level Denver Center
07:12PM 42.1000 -102.4372 83° East 469 540 35,000  Level Denver Center
07:13PM 42.1197 -102.2422 82° East 469 540 35,000  Level Denver Center
07:14PM 42.1369 -102.0631 83° East 469 540 35,000  Level Denver Center
07:15PM 42.1547 -101.8814 82° East 469 540 35,000  Level Denver Center
07:16PM 42.1692 -101.7278 83° East 469 540 35,000  Level Denver Center
07:17PM 42.1881 -101.5319 83° East 471 542 35,000  Level Denver Center
07:18PM 42.2031 -101.3639 83° East 471 542 35,000  Level Denver Center
07:19PM 42.2189 -101.1678 84° East 471 542 35,000  Level Denver Center
07:20PM 42.2306 -101.0272 84° East 471 542 35,000  Level Denver Center
07:21PM 42.2500 -100.8031 83° East 471 542 35,000  Level Denver Center
07:22PM 42.2639 -100.6333 84° East 472 543 35,000  Level Denver Center
07:23PM 42.2778 -100.4619 84° East 474 545 35,000  Level Denver Center
07:24PM 42.2942 -100.2597 84° East 481 554 35,000  Level Denver Center
07:25PM 42.3081 -100.0881 84° East 482 555 35,000  Level Denver Center
07:26PM 42.3239 -99.8850 84° East 482 555 35,000  Level Denver Center
07:27PM 42.3372 -99.7133 84° East 482 555 35,000  Level Denver Center
07:28PM 42.3519 -99.5108 84° East 484 557 35,000  Level Denver Center
07:29PM 42.3650 -99.3236 85° East 491 565 35,000  Level Denver Center
07:30PM 42.3781 -99.1383 84° East 493 567 35,000  Level Denver Center
07:31PM 42.3906 -98.9522 85° East 493 567 35,000  Level Denver Center
07:32PM 42.4031 -98.7667 85° East 493 567 35,000  Level Denver Center
07:33PM 42.4183 -98.5436 85° East 495 570 35,000  Level Minneapolis Center
07:34PM 42.4306 -98.3567 85° East 495 570 35,000  Level Minneapolis Center
07:35PM 42.4411 -98.1697 86° East 496 571 35,000  Level Minneapolis Center
07:36PM 42.4528 -97.9847 85° East 495 570 35,000  Level Minneapolis Center
07:37PM 42.4636 -97.7986 85° East 495 570 35,000  Level Minneapolis Center
07:38PM 42.4739 -97.6103 86° East 495 570 35,000  Level Minneapolis Center
07:39PM 42.4844 -97.4228 86° East 496 571 35,000  Level Minneapolis Center
07:40PM 42.4958 -97.1989 86° East 496 571 35,000  Level Minneapolis Center
07:42PM 42.5061 -97.0094 86° East 497 572 35,000 244 Level Minneapolis Center
07:43PM 42.5158 -96.8156 86° East 509 586 35,500 780 Climbing Minneapolis Center
07:44PM 42.5247 -96.6269 86° East 508 585 36,600 732 Climbing Minneapolis Center
07:45PM 42.5331 -96.4417 86° East 502 578 37,000 195 Climbing Minneapolis Center
07:46PM 42.5411 -96.2511 87° East 500 575 37,000  Level Minneapolis Center
07:47PM 42.5497 -96.0539 87° East 510 587 37,000  Level Minneapolis Center
07:48PM 42.5575 -95.8594 87° East 515 593 37,000  Level Minneapolis Center
07:49PM 42.5658 -95.6636 87° East 515 593 37,000  Level Minneapolis Center
07:50PM 42.5742 -95.4675 87° East 516 594 37,000  Level Minneapolis Center
07:51PM 42.5825 -95.2314 87° East 518 596 37,000  Level Minneapolis Center
07:52PM 42.5886 -95.0372 87° East 517 595 37,000  Level Minneapolis Center
07:53PM 42.5950 -94.8411 87° East 518 596 37,000  Level Minneapolis Center
07:54PM 42.6011 -94.6439 88° East 521 600 37,000  Level Minneapolis Center
07:55PM 42.6075 -94.4417 87° East 523 602 37,000  Level Minneapolis Center
07:56PM 42.6106 -94.2439 89° East 524 603 37,000  Level Minneapolis Center
07:57PM 42.6025 -94.0439 93° East 527 606 37,000  Level Minneapolis Center
07:58PM 42.5961 -93.8442 92° East 527 606 37,000  Level Minneapolis Center
07:59PM 42.5897 -93.6467 92° East 527 606 37,000  Level Minneapolis Center
08:00PM 42.5811 -93.4081 93° East 529 609 37,000  Level Minneapolis Center
08:01PM 42.5733 -93.2061 93° East 533 613 37,000  Level Minneapolis Center
08:02PM 42.5669 -93.0450 93° East 537 618 37,000 -263 Level Chicago Center
08:03PM 42.5581 -92.8439 93° East 536 617 36,500 -1,024 Descending Chicago Center
08:04PM 42.5492 -92.6408 93° East 541 623 34,900 -1,951 Descending Chicago Center
08:05PM 42.5394 -92.4011 93° East 534 615 32,500 -1,887 Descending Chicago Center
08:06PM 42.5303 -92.1961 93° East 546 628 31,000 -726 Descending Chicago Center
08:07PM 42.5247 -91.9867 92° East 558 642 31,000  Level Chicago Center
08:08PM 42.5258 -91.7767 90° East 566 651 31,000  Level Chicago Center
08:09PM 42.5272 -91.5689 89° East 566 651 31,000  Level Chicago Center
08:10PM 42.5272 -91.3186 90° East 566 651 31,000  Level Chicago Center
08:11PM 42.5278 -91.1067 90° East 572 658 31,000  Level Chicago Center
08:12PM 42.5253 -90.8947 91° East 571 657 31,000  Level Chicago Center
08:13PM 42.5239 -90.6803 90° East 574 661 31,000 -244 Level Chicago Center
08:14PM 42.5228 -90.4661 90° East 572 658 30,500 -1,415 Descending Chicago Center
08:15PM 42.5197 -90.2103 91° East 570 656 28,100 -2,129 Descending Chicago Center
08:16PM 42.5197 -90.0028 90° East 556 640 26,100 -1,694 Descending Chicago Center
08:17PM 42.5169 -89.8181 91° East 542 624 24,600 -1,742 Descending Chicago Center
08:18PM 42.5142 -89.5881 91° East 513 590 22,500 -1,756 Descending Chicago Center
08:19PM 42.5111 -89.3994 91° East 505 581 21,000 -1,756 Descending Chicago Center
08:20PM 42.5086 -89.2167 91° East 491 565 18,900 -1,984 Descending Chicago Center
08:21PM 42.5061 -89.0447 91° East 466 536 16,900 -2,323 Descending Chicago Center
08:22PM 42.4906 -88.8808 97° East 447 514 14,100 -2,323 Descending Chicago Center
08:23PM 42.4472 -88.7342 112° Southeast 424 488 12,100 -1,463 Descending Chicago Center
08:24PM 42.3983 -88.5739 112° Southeast 392 451 11,100 -537 Descending Chicago Center
08:26PM 42.3572 -88.4444 113° Southeast 379 436 11,000 -48 Descending Chicago Center
08:27PM 42.2972 -88.3133 122° Southeast 398 458 11,000  Level Chicago Center
08:28PM 42.2306 -88.2036 129° Southeast 379 436 11,000 -484 Level Chicago Center
08:29PM 42.1458 -88.1228 145° Southeast 345 397 10,000 -1,200 Descending Chicago Center
08:30PM 42.0833 -88.0833 155° Southeast 309 356 8,700 -1,487 Descending Chicago TRACON
08:31PM 42.0167 -88.0000 137° Southeast 292 336 7,200 -836 Descending Chicago TRACON
08:32PM 41.9667 -87.9167 129° Southeast 296 341 7,000 -98 Descending Chicago TRACON
08:33PM 41.9167 -87.8500 135° Southeast 239 275 7,000 -508 Level Chicago TRACON
08:34PM 41.9000 -87.7667 105° East 231 266 6,000 -1,152 Descending Chicago TRACON
08:35PM 41.9167 -87.7000 71° East 193 222 4,600 -1,388 Descending Chicago TRACON
08:36PM 41.9333 -87.7333 304° West 167 192 3,200 -1,190 Descending Chicago TRACON
08:37PM 41.9667 -87.7833 312° West 161 185 2,300 -842 Descending Chicago TRACON
08:37PM 41.9667 -87.8333 270° West 127 146 1,600 -712 Descending Chicago TRACON
08:39PM 41.9667 -87.8833 270° West 122 140 900 -636 Descending Chicago TRACON

Login

Don't have an account? Register now (free) for customized features, flight alerts, and more!